Location: Milton
(43.5183°N, 79.8775°W)
Time: 19:10:13
(UTC+00:00)

CUTE-I - Visible Passes

Search period start: 28 March 2023 00:00
Search period end: 07 April 2023 00:00
Orbit: 809 x 823 km, 98.7° (Epoch: 27 March)

Date Brightness Start Highest point End Pass type
(mag) Time Alt. Az. Time Alt. Az. Time Alt. Az.
29 Mar ? 00:20:06 10° WSW 00:22:32 13° W 00:24:59 10° WNW visible
30 Mar ? 10:31:14 10° NE 10:34:59 19° E 10:38:41 10° SE visible
31 Mar ? 10:10:56 10° ENE 10:12:47 12° E 10:14:37 10° ESE visible
04 Apr ? 10:22:13 10° NE 10:25:21 16° E 10:28:28 10° SE visible
